Tracking 35280 objects as of 7-Sep-2026
HD Live streaming from Space Station
objects crossing your sky now

THOR ABLESTAR DEB


THOR ABLESTAR DEB is no longer on orbit


NORAD ID: 211
Int'l Code: 1961-015BF
Launch date: June 29, 1961
Source: United States (US)
Launch site: AIR FORCE EASTERN TEST RANGE (AFETR)
Decay date: 2002-10-17

Note: This is SATELLITE DEBRIS
Your satellite tracking list
Your tracking list is empty




NASA's NSSDC Master Catalog

Two Line Element Set (TLE):
1 00211U 61015BF  02289.93597555  .12731494  63839-5  44358-2 0  9997
2 00211 066.5055 094.2273 0012921 260.4849 099.4747 16.24698619154673
Source of the keplerian elements: AFSPC